This demonstration page uses our WeatherBlox Daily Observations layout. Learn more.

Left ArrowRight Arrow

Hourly Observations for December 31, 2020

Temp ( °F °C ) Dew Point ( °F °C ) Humidity (%) Winds ( mph kmh ) Pressure ( in mb ) Visibility ( mi km ) Precip ( " mm )
12:56 am 00:56 Clear 13 -10.6 11 -11.7 92 92 SSW 9 15 30.17 1022 10 16 0.00 0.00
1:56 am 01:56 Clear 14 -10 12 -11.1 92 92 SSW 8 13 30.15 1021 10 16 0.00 0.00
2:56 am 02:56 Clear with Mist and Fog 10 -12.2 8 -13.3 92 92 S 6 9 30.15 1021 6 10 0.00 0.00
2:59 am 02:59 Clear with Light Snow 10 -12 9 -13 92 92 S 6 9 30.26 1025 2 2 0.00 0.00
3:09 am 03:09 Clear with Light Snow 9 -13 7 -14 92 92 S 6 9 30.27 1025 3 5 0.00 0.00
3:56 am 03:56 Clear 10 -12.2 8 -13.3 92 92 SSW 9 15 30.13 1020 10 16 0.00 0.00
4:56 am 04:56 Clear 15 -9.4 13 -10.6 91 91 SW 13 20 30.11 1020 10 16 0.00 0.00
5:56 am 05:56 Clear 15 -9.4 13 -10.6 91 91 WSW 6 9 30.12 1020 10 16 0.00 0.00
6:56 am 06:56 Clear 13 -10.6 10 -12.2 88 88 WSW 3 6 30.12 1020 10 16 0.00 0.00
7:56 am 07:56 Clear 11 -11.7 8 -13.3 88 88 SW 6 9 30.14 1021 10 16 0.00 0.00
8:56 am 08:56 Sunny 11 -11.7 9 -12.8 92 92 S 13 20 30.15 1021 10 16 0.00 0.00
9:56 am 09:56 Sunny 19 -7.2 16 -8.9 88 88 SSW 9 15 30.15 1021 10 16 0.00 0.00
10:56 am 10:56 Sunny 24 -4.4 19 -7.2 81 81 SSW 14 22 30.15 1021 10 16 0.00 0.00
11:56 am 11:56 Sunny 30 -1.1 22 -5.6 72 72 SW 10 17 30.14 1021 10 16 0.00 0.00
12:56 pm 12:56 Sunny 33 0.6 22 -5.6 64 64 SW 10 17 30.11 1020 10 16 0.00 0.00
1:56 pm 13:56 Sunny 35 1.7 23 -5 61 61 SSW 13 20 30.11 1020 10 16 0.00 0.00
2:56 pm 14:56 Sunny 33 0.6 23 -5 66 66 SSW 10 17 30.13 1020 10 16 0.00 0.00
3:56 pm 15:56 Sunny 32 0 24 -4.4 73 73 S 6 9 30.16 1021 10 16 0.00 0.00
4:56 pm 16:56 Sunny 29 -1.7 23 -5 78 78 Calm 30.13 1020 10 16 0.00 0.00
5:56 pm 17:56 Clear 27 -2.8 23 -5 85 85 SSE 3 6 30.14 1021 10 16 0.00 0.00
6:56 pm 18:56 Clear 21 -6.1 18 -7.8 88 88 Calm 30.14 1021 10 16 0.00 0.00
7:56 pm 19:56 Clear 20 -6.7 17 -8.3 89 89 S 5 7 30.17 1022 9 14 0.00 0.00
8:18 pm 20:18 Clear with Mist and Fog 19 -7 18 -8 93 93 SSE 3 6 30.22 1024 3 4 0.00 0.00
8:27 pm 20:27 Clear 19 -7 18 -8 93 93 Calm 30.22 1024 10 16 0.00 0.00
8:56 pm 20:56 Clear with Mist and Fog 17 -8.3 14 -10 88 88 SSE 3 6 30.20 1023 5 8 0.00 0.00
9:00 pm 21:00 Clear with Mist and Fog 18 -8 14 -10 86 86 SSE 3 6 30.25 1024 2 3 0.00 0.00
9:03 pm 21:03 Mostly Cloudy with Light Snow 18 -8 14 -10 86 86 SSE 3 6 30.25 1024 1 1 0.00 0.00
9:10 pm 21:10 Mostly Cloudy with Light Snow 18 -8 14 -10 86 86 SSE 5 7 30.26 1025 1 1 0.00 0.00
9:16 pm 21:16 Clear with Light Snow 16 -9 12 -11 86 86 SSE 5 7 30.27 1025 1 1 0.00 0.00
9:20 pm 21:20 Clear with Light Snow 16 -9 12 -11 86 86 S 3 6 30.26 1025 1 2 0.00 0.00
9:28 pm 21:28 Clear 16 -9 12 -11 86 86 S 3 6 30.27 1025 8 13 0.00 0.00
9:54 pm 21:54 Clear with Light Snow 18 -8 16 -9 93 93 Calm 30.26 1025 2 2 0.00 0.00
9:56 pm 21:56 Partly Cloudy with Isolated Snow Showers 18 -7.8 15 -9.4 88 88 WNW 3 6 30.19 1022 1 2 0.00 0.00
10:05 pm 22:05 Partly Cloudy with Isolated Snow Showers 18 -8 16 -9 93 93 WNW 3 6 30.26 1025 3 5 0.00 0.00
10:56 pm 22:56 Clear 15 -9.4 13 -10.6 91 91 NW 6 9 30.18 1022 9 14 0.00 0.00
11:56 pm 23:56 Clear 13 -10.6 11 -11.7 92 92 NW 7 11 30.18 1022 10 16 0.00 0.00

Powered by AerisWeather